User: anonymous   Login
Location: �terpigny
(49.8910°N, 2.9249°E)
Time: 11:49:05
(UTC+00:00)
Language:

FO-99 - Orbit

View from above orbital plane
View from above orbital plane
View from above satellite
View from above satellite

Ground track
Ground track

The orbit data is extracted from the following two-line orbital elements,

1 43937U 19003F   22176.07896960  .00008459  00000-0  28392-3 0  9995
2 43937  97.1298 209.1330 0022438 124.5106 235.8259 15.30859249191146
Epoch (UTC): 25 June 2022 01:53:42
Eccentricity: 0.0022438
inclination: 97.1298°
perigee height: 458 km
apogee height: 488 km
right ascension of ascending node: 209.1330°
argument of perigee: 124.5106°
revolutions per day: 15.30859249
mean anomaly at epoch: 235.8259°
orbit number at epoch: 19114

The dashed part of the orbit path shows where the satellite is in the earth's shadow,  

DLR